[[{"header":{"parameterUnit":"m.s-1","parameterCategory":1,"la1":30.2992,"la2":30.254,"lo1":-89.0895,"lo2":-89.0443,"dy":0.0025,"dx":0.0025,"nx":19,"ny":19,"refTime":"2026-04-01T21:00:00:Z","depth":0,"parameterNumber":2,"parameterNumberName":"U-component_of_WINDS"},"data":[0,0,0,-4.9285,-4.9289,-4.947,-4.947,-4.9705,-4.9707,0,0,0,0,0,0,0,0,0,0,0,-4.9233,-4.9235,-4.9284,-4.9289,-4.9469,-4.947,-4.9704,-4.9707,0,0,0,0,0,0,0,0,0,0,0,-4.9233,-4.9235,-4.9237,-4.929,-4.9469,-4.947,-4.9704,-4.9566,0,0,0,0,0,0,0,0,0,0,-4.939,-4.9345,-4.9234,-4.9237,-4.9291,-4.9469,-4.947,-4.956,-4.9575,-4.9625,0,-4.9669,0,-4.9692,-4.9723,-4.9724,0,0,0,-4.9287,-4.9332,-4.9379,-4.9237,-4.9292,-4.9469,-4.9388,-4.9568,-4.9585,-4.9645,-4.9673,-4.9681,-4.9696,-4.9725,-4.9726,-5.0019,-5.002,0,0,-4.9277,-4.9267,-4.9367,-4.939,-4.9363,-4.9382,-4.9393,-4.9579,-4.9608,-4.9674,-4.9687,-4.97,-4.9726,-4.9728,-5.0017,-5.0019,0,0,0,-4.925,-4.926,-4.9302,-4.9381,-4.9413,-4.9387,-4.94,-4.96,-4.9614,-4.9689,-4.9703,-4.9727,-4.973,-5.0016,-5.0018,-5.0078,0,0,0,-4.9244,-4.9244,-4.9298,-4.9293,-4.941,-4.9509,-4.9417,-4.9602,-4.9623,-4.9701,-4.9728,-4.9733,-5.0014,-5.0017,-5.0073,-5.0107,0,0,0,-4.9221,-4.9241,-4.9268,-4.9293,-4.937,-4.9506,-4.9531,-4.9606,-4.9631,-4.9724,-4.9733,-5.0013,-5.0016,-5.0068,-5.0099,-5.0179,0,0,0,-4.9193,-4.9319,-4.9269,-4.9416,-4.9368,-4.9543,-4.953,-4.9661,-4.9748,-4.9729,-5.0014,-5.0018,-5.0067,-5.0095,-5.0174,-5.0242,-5.027,0,0,-4.9346,-4.9337,-4.9425,-4.9385,-4.9565,-4.9516,-4.9706,-4.9795,-4.9814,-4.9949,-4.9957,-5.0074,-5.0099,-5.0178,-5.0437,-5.0459,0,0,0,-4.9469,-4.9531,-4.9582,-4.9664,-4.9736,-4.98,-4.9862,-4.9896,-5.0011,-4.9881,-5.0127,-5.0142,-5.0188,-5.0221,-5.024,-5.028,-5.0033,-5.0033,-5.0033,-4.9668,-4.9686,-4.9831,-4.9871,-4.9952,-5.0015,-5.0082,-5.0137,-5.0132,-5.019,-5.0228,-5.0384,-5.0422,-5.0436,-5.0477,-5.0269,-5.0269,-5.0269,-5.027,-4.9892,-4.9981,-4.9973,-5.0109,-5.0128,-5.0243,-5.031,-5.0303,-5.0412,-5.0356,-5.0398,-5.0331,-5.046,-5.0497,-5.0274,-5.0273,-5.0273,-5.0272,-5.0272,-5.0021,-5.0067,-5.0107,-5.0228,-5.0321,-5.0358,-5.0464,-5.0478,-5.0491,-5.0534,-5.0575,-5.0574,-5.0572,-5.0553,-5.0554,-5.0554,-5.0555,-5.0555,-5.0555,-5.0138,-5.0181,-5.0268,-5.0357,-5.0412,-5.0487,-5.0554,-5.0609,-5.0672,-5.0674,-5.0674,-5.0661,-5.047,-5.042,-5.0564,-5.0562,-5.0561,-5.056,-5.056,-5.0352,-5.0306,-5.0441,-5.0496,-5.0602,-5.0692,-5.071,-5.082,-5.0868,-5.0919,-5.09,-5.0757,-5.0748,-5.0733,-5.0691,-5.0897,-5.0897,-5.0897,-5.0897,-5.0458,-5.0457,-5.0597,-5.0685,-5.0772,-5.0803,-5.0954,-5.1009,-5.1057,-5.1088,-5.1062,-5.1009,-5.0993,-5.0993,-5.0973,-5.0933,-5.1196,-5.1196,-5.1197,-5.0589,-5.0597,-5.0722,-5.077,-5.0854,-5.0926,-5.1069,-5.1169,-5.1216,-5.1209,-5.1112,-5.1099,-5.1014,-5.0986,-5.0972,-5.094,-5.0868,0,0]},{"header":{"parameterUnit":"m.s-1","parameterCategory":1,"la1":30.2992,"la2":30.254,"lo1":-89.0895,"lo2":-89.0443,"dy":0.0025,"dx":0.0025,"nx":19,"ny":19,"refTime":"2026-04-01T21:00:00:Z","depth":0,"parameterNumber":3,"parameterNumberName":"V-component_of_WINDS"},"data":[0,0,0,2.7464,2.7466,2.7538,2.7538,2.7624,2.7625,0,0,0,0,0,0,0,0,0,0,0,2.7439,2.7439,2.7464,2.7466,2.7538,2.7538,2.7624,2.7625,0,0,0,0,0,0,0,0,0,0,0,2.7439,2.7439,2.744,2.7466,2.7538,2.7538,2.7624,2.7572,0,0,0,0,0,0,0,0,0,0,2.7503,2.7476,2.7439,2.744,2.7466,2.7538,2.7538,2.7569,2.7575,2.7589,0,2.7601,0,2.7614,2.763,2.7631,0,0,0,2.7468,2.7471,2.7494,2.744,2.7467,2.7538,2.7506,2.7573,2.7579,2.7596,2.7602,2.7605,2.7616,2.7631,2.7631,2.7706,2.7706,0,0,2.7464,2.745,2.7489,2.7498,2.7487,2.7504,2.7508,2.7576,2.7581,2.7602,2.7607,2.7617,2.7631,2.7632,2.7706,2.7706,0,0,0,2.7451,2.7447,2.7468,2.7494,2.7508,2.7506,2.7511,2.7578,2.7587,2.7608,2.7618,2.7632,2.7633,2.7705,2.7706,2.7704,0,0,0,2.7449,2.7439,2.7466,2.7458,2.7506,2.7544,2.7511,2.7582,2.759,2.7618,2.7632,2.7634,2.7705,2.7706,2.7704,2.7705,0,0,0,2.7435,2.7438,2.7447,2.7457,2.7488,2.7543,2.7555,2.7584,2.7596,2.7631,2.7634,2.7705,2.7705,2.7703,2.7705,2.7722,0,0,0,2.7417,2.7443,2.7447,2.748,2.7487,2.7542,2.7555,2.7596,2.7626,2.7632,2.7705,2.7706,2.7703,2.7704,2.7722,2.7735,2.7738,0,0,2.7441,2.7445,2.7466,2.7471,2.7522,2.7532,2.7582,2.7622,2.7638,2.7682,2.7684,2.7704,2.7705,2.7722,2.7764,2.7767,0,0,0,2.7469,2.7484,2.75,2.7528,2.7561,2.7589,2.7624,2.7639,2.7678,2.7658,2.7715,2.7716,2.7726,2.7733,2.7736,2.7747,2.7708,2.7708,2.7708,2.7482,2.7503,2.7539,2.7569,2.7596,2.7633,2.7657,2.7684,2.7695,2.7709,2.7722,2.7745,2.7753,2.7755,2.7766,2.773,2.773,2.773,2.773,2.7521,2.7546,2.7563,2.7604,2.7626,2.766,2.7697,2.7704,2.774,2.7736,2.7746,2.7741,2.7757,2.7768,2.773,2.773,2.773,2.773,2.773,2.7533,2.7549,2.7568,2.7613,2.7645,2.7674,2.7709,2.7727,2.7744,2.7754,2.7771,2.7771,2.7775,2.7761,2.7761,2.7761,2.7761,2.7761,2.7761,2.7538,2.756,2.7587,2.7625,2.7647,2.7678,2.7716,2.7738,2.7767,2.7778,2.7778,2.7789,2.7755,2.7746,2.7763,2.7762,2.7762,2.7762,2.7762,2.7571,2.7567,2.7608,2.763,2.7678,2.771,2.7733,2.7777,2.7798,2.7814,2.7824,2.7795,2.78,2.7798,2.7791,2.7818,2.7818,2.7818,2.7818,2.7581,2.7586,2.7634,2.7669,2.7704,2.773,2.7778,2.7809,2.784,2.7854,2.7853,2.7845,2.7842,2.7849,2.7846,2.784,2.7879,2.7879,2.7879,2.7603,2.7613,2.7649,2.7681,2.772,2.7753,2.7799,2.7839,2.7872,2.7882,2.7866,2.7864,2.7852,2.7846,2.7855,2.785,2.7839,0,0]}]]